[[{"header":{"parameterUnit":"m.s-1","parameterCategory":1,"la1":30.2991,"la2":30.254,"lo1":-89.0895,"lo2":-89.0444,"dy":0.0017,"dx":0.0017,"nx":28,"ny":28,"refTime":"2024-05-10T21:00:00:Z","depth":0,"parameterNumber":2,"parameterNumberName":"U-component_of_WINDS"},"data":[0,0,0,0,0,0,0,0,0,0,0,0,0,0,0,0,0,0,0,0,0,0,0,0,0,0,0,0,0,0,0,0,0,0,0,0,0,0,0,0,0,0,0,0,0,0,0,0,0,0,0,0,0,0,0,0,0,0,-3.1576,-3.1576,0,-3.1615,-3.1616,-3.1616,-3.1493,-3.1489,-3.1486,-3.1482,-3.1521,-3.1525,-3.153,0,0,0,0,0,0,0,0,0,0,0,0,0,-3.1392,-3.1396,-3.1576,-3.1576,-3.1577,-3.1615,-3.1616,-3.1616,-3.1494,-3.1489,-3.1485,-3.1481,-3.1519,-3.1525,-3.153,0,0,0,0,0,0,0,0,0,0,0,0,0,-3.1455,-3.1397,-3.1576,-3.152,-3.1516,-3.1615,-3.1616,-3.1616,-3.1495,-3.1489,-3.1484,-3.1478,-3.1518,-3.1524,-3.1531,-3.1685,0,0,-3.1552,-3.1554,0,0,0,0,0,0,0,0,-3.1452,-3.1462,-3.1528,-3.1524,-3.152,-3.1544,-3.1565,-3.1639,-3.1496,-3.1503,-3.1482,-3.1476,-3.1533,-3.1538,-3.1558,-3.1686,-3.1688,-3.1552,-3.1556,-3.1559,-3.1561,0,0,0,0,0,0,0,-3.1448,-3.146,-3.1591,-3.1529,-3.1524,-3.1493,-3.1495,-3.1578,-3.1549,-3.1502,-3.1493,-3.1499,-3.1529,-3.1551,-3.1558,-3.1689,-3.1552,-3.1558,-3.1562,-3.1565,-3.1943,-3.1949,0,0,0,0,0,0,-3.1451,-3.1457,-3.159,-3.1592,-3.1471,-3.15,-3.1504,-3.1541,-3.1547,-3.1543,-3.1504,-3.1494,-3.1543,-3.155,-3.1558,-3.1737,-3.1559,-3.1565,-3.1569,-3.1937,-3.1944,-3.1951,0,0,0,0,0,0,-3.1447,-3.1464,-3.1588,-3.1522,-3.1536,-3.151,-3.1553,-3.1545,-3.1567,-3.1549,-3.1543,-3.1532,-3.1538,-3.1549,-3.1654,-3.1737,-3.1568,-3.1575,-3.193,-3.1939,-3.1948,-3.2098,0,0,0,0,0,0,-3.1443,-3.1463,-3.1523,-3.1525,-3.154,-3.1685,-3.1558,-3.155,-3.1579,-3.1566,-3.1574,-3.157,-3.1535,-3.1644,-3.166,-3.1743,-3.158,-3.1922,-3.1934,-3.1945,-3.2085,-3.2111,-3.2133,0,0,0,0,0,-3.1437,-3.1563,-3.1526,-3.1543,-3.1613,-3.169,-3.1698,-3.1656,-3.1587,-3.1645,-3.1633,-3.157,-3.1725,-3.1656,-3.1673,-3.1759,-3.1917,-3.1931,-3.1944,-3.2075,-3.2106,-3.2132,0,0,0,0,0,0,-3.1572,-3.1563,-3.1521,-3.1653,-3.1673,-3.1669,-3.1741,-3.169,-3.173,-3.1716,-3.1661,-3.1663,-3.1778,-3.1779,-3.1702,-3.1907,-3.1809,-3.1827,-3.1903,-3.1932,-3.1955,-3.1953,-3.1585,0,0,0,0,0,-3.1617,-3.1681,-3.1669,-3.1786,-3.1798,-3.1769,-3.18,-3.1765,-3.1784,-3.1791,-3.1787,-3.1807,-3.186,-3.1896,-3.1944,-3.2085,-3.2084,-3.2152,-3.2176,-3.2195,-3.2211,-3.2284,-3.2314,-3.1995,-3.1995,-3.1995,0,0,-3.1711,-3.1714,-3.1757,-3.1813,-3.1824,-3.189,-3.1776,-3.1851,-3.1899,-3.1802,-3.1901,-3.1899,-3.1917,-3.204,-3.2094,-3.2044,-3.2299,-3.2213,-3.2228,-3.2233,-3.2301,-3.2331,-3.2358,-3.2004,-3.2002,-3.2001,0,0,-3.1915,-3.1925,-3.2023,-3.2036,-3.2055,-3.2034,-3.2057,-3.2061,-3.2055,-3.2153,-3.2082,-3.2137,-3.223,-3.2246,-3.2266,-3.2474,-3.2417,-3.2491,-3.2615,-3.2687,-3.2712,-3.2734,-3.2807,-3.2834,-3.2507,-3.2507,-3.2508,0,-3.203,-3.2127,-3.2079,-3.2159,-3.2185,-3.21,-3.2198,-3.2213,-3.2246,-3.2266,-3.221,-3.2323,-3.233,-3.2454,-3.2505,-3.2524,-3.2548,-3.249,-3.2712,-3.2734,-3.2753,-3.2823,-3.2851,-3.2516,-3.2515,-3.2514,-3.2513,0,-3.2266,-3.2334,-3.2411,-3.2445,-3.2479,-3.2568,-3.2532,-3.2573,-3.2534,-3.2519,-3.2619,-3.2623,-3.267,-3.2697,-3.2661,-3.2816,-3.2785,-3.2722,-3.2622,-3.2794,-3.2858,-3.2884,-3.2529,-3.2526,-3.2523,-3.2521,0,0,-3.2558,-3.2564,-3.2593,-3.2606,-3.262,-3.2671,-3.2755,-3.28,-3.2835,-3.2861,-3.2928,-3.3008,-3.2949,-3.2972,-3.2937,-3.3,-3.3163,-3.2928,-3.2928,-3.2971,-3.3333,-3.338,-3.3412,-3.3125,-3.313,-3.3134,-3.3331,0,-3.2759,-3.2903,-3.2861,-3.3005,-3.3066,-3.2986,-3.3058,-3.3074,-3.3061,-3.3111,-3.3096,-3.3153,-3.3072,-3.3085,-3.3144,-3.3131,-3.3235,-3.3116,-3.3186,-3.319,-3.3184,-3.3445,-3.3496,-3.3682,-3.3356,-3.336,-3.3363,0,-3.3013,-3.3048,-3.3198,-3.3199,-3.3223,-3.329,-3.3327,-3.3376,-3.3391,-3.3377,-3.3402,-3.3353,-3.3433,-3.3333,-3.3443,-3.3363,-3.3389,-3.3387,-3.3393,-3.3398,-3.3287,-3.3456,-3.3741,-3.3769,-3.3402,-3.3399,-3.3396,0,-3.321,-3.3294,-3.3394,-3.3409,-3.3413,-3.3461,-3.3465,-3.3475,-3.3504,-3.3537,-3.3555,-3.3597,-3.3619,-3.3652,-3.3615,-3.3546,-3.373,-3.3627,-3.372,-3.3721,-3.3762,-3.376,-3.4054,-3.378,-3.378,-3.3779,-3.3779,0,-3.3438,-3.3533,-3.3483,-3.3545,-3.3647,-3.3598,-3.3701,-3.3695,-3.3704,-3.3763,-3.3695,-3.3751,-3.3699,-3.375,-3.3722,-3.3816,-3.3827,-3.3817,-3.3808,-3.3823,-3.3824,-3.3839,-3.3825,-3.3787,-3.3785,-3.3783,-3.3782,0,-3.3675,-3.3646,-3.375,-3.3745,-3.3746,-3.3822,-3.3817,-3.3873,-3.3855,-3.393,-3.3944,-3.3916,-3.3972,-3.3938,-3.3996,-3.3976,-3.4099,-3.4073,-3.4094,-3.4087,-3.4181,-3.4173,-3.4495,-3.4534,-3.4236,-3.4239,-3.4241,0,-3.3823,-3.3894,-3.3896,-3.3931,-3.3939,-3.3995,-3.4025,-3.3978,-3.4011,-3.4033,-3.4086,-3.4136,-3.4174,-3.4268,-3.4252,-3.4295,-3.4268,-3.4378,-3.4274,-3.4286,-3.4269,-3.4265,-3.4271,-3.4399,-3.4403,-3.4406,-3.4408,0,-3.4088,-3.4069,-3.4114,-3.4155,-3.4192,-3.4221,-3.4244,-3.4276,-3.4229,-3.427,-3.4326,-3.4356,-3.4413,-3.4464,-3.45,-3.4502,-3.4448,-3.4441,-3.4464,-3.448,-3.4489,-3.4484,-3.4151,-3.4433,-3.4431,-3.4429,-3.4428,-3.4427,-3.4284,-3.4342,-3.4353,-3.4405,-3.4418,-3.4441,-3.4493,-3.4481,-3.4528,-3.4571,-3.454,-3.4607,-3.4618,-3.4661,-3.4671,-3.4721,-3.4677,-3.4711,-3.472,-3.4729,-3.4742,-3.4481,-3.4728,-3.4727,-3.4726,-3.4726,-3.4725,0,-3.4544,-3.4546,-3.4595,-3.463,-3.4671,-3.4615,-3.4638,-3.4675,-3.4735,-3.475,-3.4788,-3.4853,-3.4901,-3.4888,-3.4931,-3.4974,-3.495,-3.4987,-3.4983,-3.4984,-3.4779,-3.4754,-3.5006,-3.5006,-3.5005,-3.5005,-3.5005,-3.5005,-3.4684,-3.478,-3.4762,-3.4863,-3.4864,-3.4929,-3.4946,-3.4967,-3.4979,-3.5053,-3.5093,-3.5084,-3.5088,-3.513,-3.5172,-3.5166,-3.5185,-3.5231,-3.5217,-3.5026,-3.4999,-3.4972,-3.4948,-3.5236,-3.5236,-3.5417,-3.5419,-3.542]},{"header":{"parameterUnit":"m.s-1","parameterCategory":1,"la1":30.2991,"la2":30.254,"lo1":-89.0895,"lo2":-89.0444,"dy":0.0017,"dx":0.0017,"nx":28,"ny":28,"refTime":"2024-05-10T21:00:00:Z","depth":0,"parameterNumber":3,"parameterNumberName":"V-component_of_WINDS"},"data":[0,0,0,0,0,0,0,0,0,0,0,0,0,0,0,0,0,0,0,0,0,0,0,0,0,0,0,0,0,0,0,0,0,0,0,0,0,0,0,0,0,0,0,0,0,0,0,0,0,0,0,0,0,0,0,0,0,0,-2.368,-2.368,0,-2.3716,-2.3716,-2.3717,-2.3708,-2.3708,-2.3707,-2.3706,-2.374,-2.3742,-2.3743,0,0,0,0,0,0,0,0,0,0,0,0,0,-2.36,-2.3602,-2.368,-2.368,-2.368,-2.3716,-2.3716,-2.3717,-2.3708,-2.3708,-2.3707,-2.3706,-2.374,-2.3741,-2.3743,0,0,0,0,0,0,0,0,0,0,0,0,0,-2.3635,-2.3602,-2.3679,-2.3681,-2.3681,-2.3716,-2.3716,-2.3717,-2.3709,-2.3708,-2.3707,-2.3706,-2.3739,-2.3741,-2.3744,-2.3778,0,0,-2.3751,-2.3752,0,0,0,0,0,0,0,0,-2.3633,-2.3638,-2.368,-2.3681,-2.3681,-2.3707,-2.3701,-2.3737,-2.3709,-2.3698,-2.3706,-2.3705,-2.373,-2.3733,-2.3742,-2.378,-2.3781,-2.3751,-2.3752,-2.3753,-2.3754,0,0,0,0,0,0,0,-2.3631,-2.3637,-2.3694,-2.3681,-2.3681,-2.3678,-2.3682,-2.3708,-2.3719,-2.3699,-2.3698,-2.3703,-2.373,-2.3739,-2.3742,-2.3782,-2.3751,-2.3753,-2.3754,-2.3755,-2.385,-2.3851,0,0,0,0,0,0,-2.3628,-2.3635,-2.3693,-2.3695,-2.3654,-2.3681,-2.3685,-2.3699,-2.3719,-2.3721,-2.3704,-2.3702,-2.3736,-2.374,-2.3743,-2.3785,-2.3753,-2.3755,-2.3757,-2.3849,-2.385,-2.3851,0,0,0,0,0,0,-2.3627,-2.3634,-2.3691,-2.3665,-2.3672,-2.3683,-2.3699,-2.3701,-2.371,-2.3722,-2.3724,-2.3712,-2.3735,-2.374,-2.377,-2.3786,-2.3756,-2.3758,-2.3847,-2.3849,-2.3851,-2.3868,0,0,0,0,0,0,-2.3625,-2.3633,-2.3647,-2.3665,-2.3673,-2.3718,-2.37,-2.3702,-2.3715,-2.3713,-2.373,-2.3732,-2.3735,-2.3766,-2.3772,-2.3789,-2.376,-2.3846,-2.3848,-2.385,-2.3866,-2.387,-2.3874,0,0,0,0,0,-2.3622,-2.365,-2.3648,-2.3655,-2.3691,-2.3719,-2.3723,-2.3727,-2.3716,-2.373,-2.3737,-2.3732,-2.3784,-2.3769,-2.3776,-2.3793,-2.3845,-2.3848,-2.385,-2.3865,-2.387,-2.3874,0,0,0,0,0,0,-2.3632,-2.3652,-2.365,-2.3685,-2.3701,-2.3717,-2.3734,-2.3732,-2.375,-2.3747,-2.375,-2.3754,-2.3784,-2.3792,-2.3776,-2.3828,-2.3813,-2.3816,-2.3821,-2.3826,-2.383,-2.3827,-2.3762,0,0,0,0,0,-2.3639,-2.3661,-2.3677,-2.3706,-2.3714,-2.3723,-2.3735,-2.3737,-2.3752,-2.3758,-2.3768,-2.3782,-2.3802,-2.3815,-2.3833,-2.3868,-2.3871,-2.3883,-2.3887,-2.389,-2.3893,-2.3911,-2.3916,-2.386,-2.386,-2.386,0,0,-2.3652,-2.3666,-2.3679,-2.3708,-2.372,-2.3742,-2.3728,-2.3752,-2.3767,-2.3761,-2.379,-2.3798,-2.3814,-2.3846,-2.3861,-2.3854,-2.3909,-2.3893,-2.3895,-2.3897,-2.3914,-2.392,-2.3924,-2.3861,-2.3861,-2.3861,0,0,-2.3687,-2.37,-2.3726,-2.3739,-2.3758,-2.3764,-2.377,-2.3787,-2.3793,-2.3822,-2.3818,-2.3836,-2.387,-2.3882,-2.3892,-2.3932,-2.3927,-2.3938,-2.3958,-2.3976,-2.398,-2.3984,-2.3998,-2.4003,-2.3942,-2.3942,-2.3942,0,-2.3701,-2.3735,-2.3739,-2.3763,-2.3776,-2.3773,-2.3798,-2.381,-2.3834,-2.3842,-2.3834,-2.3876,-2.3887,-2.3922,-2.3932,-2.3941,-2.3947,-2.3936,-2.3979,-2.3983,-2.3987,-2.4,-2.4006,-2.3943,-2.3943,-2.3943,-2.3942,0,-2.375,-2.3774,-2.3792,-2.3816,-2.3831,-2.3855,-2.3863,-2.3877,-2.3878,-2.3884,-2.3914,-2.3927,-2.3948,-2.3957,-2.3957,-2.3991,-2.3986,-2.3979,-2.3963,-2.3994,-2.4006,-2.4011,-2.3945,-2.3944,-2.3944,-2.3943,0,0,-2.3792,-2.3819,-2.3826,-2.3837,-2.3858,-2.3875,-2.3899,-2.3921,-2.3933,-2.395,-2.397,-2.3999,-2.3992,-2.4004,-2.4005,-2.4021,-2.4052,-2.4012,-2.4012,-2.4018,-2.409,-2.4095,-2.4101,-2.4049,-2.405,-2.4051,-2.4089,0,-2.3829,-2.3873,-2.3878,-2.3917,-2.3938,-2.3935,-2.3957,-2.3971,-2.3978,-2.3996,-2.4004,-2.4024,-2.4014,-2.4021,-2.4037,-2.4045,-2.4066,-2.4043,-2.4067,-2.4068,-2.4062,-2.4108,-2.4113,-2.4148,-2.4094,-2.4095,-2.4095,0,-2.3877,-2.3896,-2.3937,-2.3955,-2.3964,-2.3983,-2.4004,-2.4022,-2.4038,-2.4042,-2.4056,-2.4056,-2.408,-2.4065,-2.4098,-2.4081,-2.4092,-2.4097,-2.4099,-2.41,-2.4083,-2.411,-2.4159,-2.4164,-2.4103,-2.4102,-2.4102,0,-2.3902,-2.3938,-2.3968,-2.3977,-2.3999,-2.4013,-2.4022,-2.4038,-2.4051,-2.4068,-2.4077,-2.4097,-2.4107,-2.4123,-2.4127,-2.4116,-2.416,-2.4145,-2.4163,-2.4163,-2.4172,-2.4171,-2.4222,-2.418,-2.418,-2.418,-2.418,0,-2.3942,-2.3967,-2.3979,-2.3997,-2.4025,-2.4031,-2.4058,-2.4067,-2.4081,-2.41,-2.4099,-2.4116,-2.4122,-2.4141,-2.4145,-2.4171,-2.4176,-2.4179,-2.418,-2.4179,-2.4178,-2.4185,-2.4182,-2.4181,-2.4181,-2.4181,-2.418,0,-2.3974,-2.3984,-2.4016,-2.4035,-2.404,-2.4059,-2.4075,-2.4092,-2.4099,-2.4123,-2.4129,-2.414,-2.4162,-2.4169,-2.4194,-2.4197,-2.4228,-2.4227,-2.4223,-2.4222,-2.424,-2.4238,-2.4297,-2.4304,-2.4258,-2.4258,-2.4258,0,-2.3999,-2.4018,-2.404,-2.4053,-2.4063,-2.4084,-2.4098,-2.4104,-2.4118,-2.4139,-2.4153,-2.4175,-2.4193,-2.4227,-2.4237,-2.4257,-2.4255,-2.4275,-2.4258,-2.4257,-2.4255,-2.4253,-2.4255,-2.4277,-2.4278,-2.4278,-2.4279,0,-2.4041,-2.4045,-2.4065,-2.4086,-2.4103,-2.412,-2.4137,-2.4147,-2.4156,-2.4172,-2.4194,-2.4208,-2.4235,-2.4257,-2.4277,-2.4286,-2.4283,-2.4284,-2.4289,-2.4288,-2.4284,-2.4286,-2.423,-2.4282,-2.4282,-2.4282,-2.4281,-2.4281,-2.4069,-2.4086,-2.4104,-2.4127,-2.414,-2.4156,-2.4173,-2.4183,-2.4202,-2.4225,-2.4228,-2.4252,-2.4268,-2.4295,-2.4305,-2.4324,-2.4318,-2.4326,-2.4328,-2.4329,-2.433,-2.4282,-2.4328,-2.4328,-2.4328,-2.4328,-2.4328,0,-2.411,-2.4122,-2.4143,-2.4166,-2.4184,-2.4182,-2.42,-2.4215,-2.4236,-2.4252,-2.427,-2.4296,-2.4317,-2.4329,-2.435,-2.4362,-2.4362,-2.4367,-2.4366,-2.4368,-2.4334,-2.4328,-2.4368,-2.4368,-2.4368,-2.4368,-2.4368,-2.4368,-2.4134,-2.4162,-2.4169,-2.4204,-2.4215,-2.424,-2.4251,-2.4265,-2.4277,-2.4307,-2.4325,-2.4333,-2.4347,-2.4369,-2.4388,-2.4391,-2.4398,-2.4404,-2.4406,-2.4375,-2.437,-2.4366,-2.436,-2.4406,-2.4406,-2.4438,-2.4439,-2.4439]}]]